| time (UTC) | temp F | wind direction | speed MPH | gust MPH | rain 1hr in | rain 24hr in | rain mn in | humidity % | barometer mb |
| 20260902184534 | 91 | 330 | 2.0 | 8.0 | 0.00 | 0.00 | 0.00 | 37 | 1013.2 |
| 20260902183030 | 90 | 296 | 3.0 | 13.0 | 0.00 | 0.00 | 0.00 | 33 | 1013.3 |
| 20260902181525 | 90 | 297 | 4.0 | 9.0 | 0.00 | 0.00 | 0.00 | 21 | 1013.5 |
| 20260902180031 | 89 | 202 | 2.0 | 7.0 | 0.00 | 0.00 | 0.00 | 14 | 1013.8 |
| 20260902174518 | 88 | 292 | 4.0 | 8.0 | 0.00 | 0.00 | 0.00 | 7 | 1014.0 |
| 20260902173012 | 86 | 272 | 5.0 | 11.0 | 0.00 | 0.00 | 0.00 | 100 | 1014.2 |
| 20260902171508 | 85 | 252 | 4.0 | 11.0 | 0.00 | 0.00 | 0.00 | 100 | 1014.4 |
| 20260902170004 | 84 | 241 | 4.0 | 9.0 | 0.00 | 0.00 | 0.00 | 100 | 1014.4 |
| 20260902164603 | 83 | 232 | 5.0 | 8.0 | 0.00 | 0.00 | 0.00 | 100 | 1014.5 |
| 20260902163055 | 82 | 317 | 3.0 | 8.0 | 0.00 | 0.00 | 0.00 | 100 | 1014.7 |
| 20260902161550 | 80 | 295 | 3.0 | 10.0 | 0.00 | 0.00 | 0.00 | 100 | 1014.8 |
| 20260902160046 | 79 | 277 | 6.0 | 12.0 | 0.00 | 0.00 | 0.00 | 100 | 1014.9 |
| 20260902154542 | 78 | 252 | 3.0 | 11.0 | 0.00 | 0.00 | 0.00 | 100 | 1015.1 |
| 20260902153037 | 77 | 237 | 4.0 | 10.0 | 0.00 | 0.00 | 0.00 | 100 | 1015.3 |
| 20260902151534 | 76 | 225 | 3.0 | 12.0 | 0.00 | 0.00 | 0.00 | 100 | 1015.2 |
| 20260902150028 | 75 | 258 | 3.0 | 10.0 | 0.00 | 0.00 | 0.00 | 100 | 1015.2 |
| 20260902144525 | 74 | 230 | 4.0 | 14.0 | 0.00 | 0.00 | 0.00 | 100 | 1015.4 |
| 20260902143020 | 72 | 252 | 5.0 | 10.0 | 0.00 | 0.00 | 0.00 | 100 | 1015.3 |
| 20260902141515 | 71 | 236 | 3.0 | 8.0 | 0.00 | 0.00 | 0.00 | 100 | 1015.4 |
| 20260902140011 | 70 | 210 | 5.0 | 10.0 | 0.00 | 0.00 | 0.00 | 100 | 1015.5 |
| 20260902134509 | 70 | 228 | 5.0 | 10.0 | 0.00 | 0.00 | 0.00 | 100 | 1015.7 |
| 20260902133002 | 70 | 144 | 7.0 | 11.0 | 0.00 | 0.00 | 0.00 | 100 | 1015.9 |
| 20260902131559 | 70 | 189 | 1.0 | 4.0 | 0.00 | 0.00 | 0.00 | 100 | 1015.3 |
| 20260902130054 | 70 | 232 | 3.0 | 7.0 | 0.00 | 0.00 | 0.00 | 100 | 1015.1 |
| 20260902124550 | 70 | 157 | 4.0 | 9.0 | 0.00 | 0.00 | 0.00 | 100 | 1015.5 |
| 20260902123044 | 70 | 173 | 3.0 | 10.0 | 0.00 | 0.00 | 0.00 | 100 | 1015.3 |
| 20260902121541 | 70 | 121 | 3.0 | 6.0 | 0.00 | 0.00 | 0.00 | 100 | 1015.3 |
| 20260902120035 | 70 | 174 | 0.0 | 9.0 | 0.00 | 0.00 | 0.00 | 100 | 1014.7 |
| 20260902114533 | 70 | 135 | 5.0 | 8.0 | 0.00 | 0.00 | 0.00 | 100 | 1014.7 |
| 20260902113030 | 70 | 237 | 2.0 | 10.0 | 0.00 | 0.00 | 0.00 | 100 | 1016.0 |
| 20260902111522 | 72 | 69 | 9.0 | 21.0 | 0.00 | 0.00 | 0.00 | 100 | 1016.3 |
| 20260902110018 | 73 | 234 | 1.0 | 7.0 | 0.00 | 0.00 | 0.00 | 100 | 1014.1 |
| 20260902104515 | 73 | 250 | 3.0 | 9.0 | 0.00 | 0.00 | 0.00 | 100 | 1013.6 |
| 20260902103009 | 73 | 257 | 3.0 | 9.0 | 0.00 | 0.00 | 0.00 | 100 | 1013.6 |
| 20260902101504 | 73 | 256 | 3.0 | 7.0 | 0.00 | 0.00 | 0.00 | 100 | 1013.2 |
| 20260902100101 | 73 | 265 | 2.0 | 7.0 | 0.00 | 0.00 | 0.00 | 100 | 1013.2 |
| 20260902094557 | 73 | 284 | 3.0 | 6.0 | 0.00 | 0.00 | 0.00 | 100 | 1013.6 |
| 20260902093052 | 73 | 229 | 3.0 | 8.0 | 0.00 | 0.00 | 0.00 | 100 | 1013.4 |
| 20260902091550 | 73 | 229 | 1.0 | 6.0 | 0.00 | 0.00 | 0.00 | 100 | 1013.6 |
| 20260902090043 | 73 | 234 | 2.0 | 7.0 | 0.00 | 0.00 | 0.00 | 100 | 1013.8 |
| 20260902084541 | 72 | 243 | 2.0 | 5.0 | 0.00 | 0.00 | 0.00 | 100 | 1014.0 |
| 20260902083036 | 72 | 254 | 1.0 | 6.0 | 0.00 | 0.00 | 0.00 | 100 | 1014.1 |
| 20260902081530 | 72 | 244 | 2.0 | 4.0 | 0.00 | 0.00 | 0.00 | 100 | 1014.1 |
| 20260902080026 | 72 | 248 | 1.0 | 5.0 | 0.00 | 0.00 | 0.00 | 100 | 1014.0 |
| 20260902074521 | 72 | 224 | 2.0 | 5.0 | 0.00 | 0.00 | 0.00 | 100 | 1014.1 |
| 20260902073016 | 72 | 239 | 1.0 | 6.0 | 0.00 | 0.00 | 0.00 | 100 | 1014.2 |
| 20260902071515 | 72 | 234 | 2.0 | 5.0 | 0.00 | 0.00 | 0.00 | 100 | 1014.1 |
| 20260902070008 | 72 | 257 | 2.0 | 4.0 | 0.00 | 0.00 | 0.00 | 100 | 1014.1 |
| 20260902064511 | 72 | 209 | 2.0 | 6.0 | 0.00 | 0.00 | 0.00 | 100 | 1014.1 |
| 20260902063115 | 72 | 219 | 1.0 | 3.0 | 0.00 | 0.00 | 0.00 | 100 | 1014.3 |
| 20260902061555 | 72 | 253 | 0.0 | 3.0 | 0.00 | 0.00 | 0.00 | 100 | 1014.6 |
| 20260902060106 | 72 | 279 | 1.0 | 3.0 | 0.00 | 0.00 | 0.00 | 100 | 1014.5 |
| 20260902054602 | 72 | 280 | 0.0 | 2.0 | 0.00 | 0.00 | 0.00 | 100 | 1014.6 |
| 20260902053042 | 72 | 280 | 0.0 | 3.0 | 0.00 | 0.00 | 0.00 | 100 | 1014.5 |
| 20260902051545 | 72 | 279 | 0.0 | 0.0 | 0.00 | 0.00 | 0.00 | 100 | 1014.4 |
| 20260902050033 | 73 | 279 | 0.0 | 0.0 | 0.00 | 0.00 | 0.00 | 100 | 1014.2 |
| 20260902044528 | 74 | 279 | 0.0 | 0.0 | 0.00 | 0.00 | 0.00 | 100 | 1014.1 |
| 20260902043023 | 74 | 278 | 1.0 | 4.0 | 0.00 | 0.00 | 0.00 | 100 | 1014.0 |
| 20260902041535 | 74 | 280 | 1.0 | 4.0 | 0.00 | 0.00 | 0.00 | 100 | 1014.1 |
| 20260902040020 | 74 | 274 | 1.0 | 3.0 | 0.00 | 0.00 | 0.00 | 100 | 1013.9 |
| 20260902034510 | 75 | 273 | 1.0 | 4.0 | 0.00 | 0.00 | 0.00 | 100 | 1013.9 |
| 20260902033007 | 75 | 272 | 1.0 | 3.0 | 0.00 | 0.00 | 0.00 | 100 | 1013.8 |
| 20260902031503 | 76 | 272 | 0.0 | 3.0 | 0.00 | 0.00 | 0.00 | 100 | 1013.9 |
| 20260902030056 | 75 | 272 | 1.0 | 4.0 | 0.00 | 0.00 | 0.00 | 100 | 1013.9 |
| 20260902024555 | 75 | 267 | 0.0 | 2.0 | 0.00 | 0.00 | 0.00 | 100 | 1013.9 |
| 20260902023052 | 75 | 267 | 0.0 | 3.0 | 0.00 | 0.00 | 0.00 | 100 | 1013.9 |
| 20260902021545 | 75 | 269 | 0.0 | 4.0 | 0.00 | 0.00 | 0.00 | 100 | 1013.9 |
| 20260902020040 | 75 | 261 | 0.0 | 1.0 | 0.00 | 0.00 | 0.00 | 100 | 1013.9 |
| 20260902014538 | 75 | 261 | 0.0 | 2.0 | 0.00 | 0.00 | 0.00 | 100 | 1013.7 |
| 20260902013030 | 75 | 260 | 0.0 | 1.0 | 0.00 | 0.00 | 0.00 | 100 | 1013.6 |
| 20260902011526 | 75 | 261 | 0.0 | 0.0 | 0.00 | 0.00 | 0.00 | 100 | 1013.6 |
| 20260902010022 | 75 | 261 | 0.0 | 1.0 | 0.00 | 0.00 | 0.00 | 100 | 1013.5 |
| 20260902004527 | 76 | 261 | 0.0 | 0.0 | 0.00 | 0.00 | 0.00 | 100 | 1013.5 |
| 20260902003034 | 77 | 261 | 0.0 | 1.0 | 0.00 | 0.00 | 0.00 | 100 | 1013.4 |
| 20260902001508 | 77 | 261 | 0.0 | 0.0 | 0.00 | 0.00 | 0.00 | 100 | 1013.4 |
| 20260902000006 | 79 | 261 | 1.0 | 3.0 | 0.00 | 0.00 | 0.00 | 100 | 1013.4 |
| 20260901234559 | 80 | 275 | 0.0 | 3.0 | 0.00 | 0.00 | 0.00 | 100 | 1013.4 |
| 20260901233055 | 80 | 290 | 0.0 | 2.0 | 0.00 | 0.00 | 0.00 | 6 | 1013.4 |
| 20260901231559 | 81 | 297 | 1.0 | 4.0 | 0.00 | 0.00 | 0.00 | 10 | 1013.4 |
| 20260901230045 | 81 | 316 | 1.0 | 6.0 | 0.00 | 0.00 | 0.00 | 12 | 1013.5 |
| 20260901224546 | 82 | 342 | 2.0 | 5.0 | 0.00 | 0.00 | 0.00 | 18 | 1013.4 |
| 20260901223037 | 82 | 348 | 3.0 | 7.0 | 0.00 | 0.00 | 0.00 | 22 | 1013.4 |
| 20260901221538 | 82 | 5 | 3.0 | 7.0 | 0.00 | 0.00 | 0.00 | 20 | 1013.4 |
| 20260901220037 | 82 | 15 | 4.0 | 12.0 | 0.00 | 0.00 | 0.00 | 22 | 1013.5 |
| 20260901214523 | 82 | 355 | 3.0 | 9.0 | 0.00 | 0.00 | 0.00 | 21 | 1013.5 |
| 20260901213019 | 82 | 51 | 3.0 | 10.0 | 0.00 | 0.00 | 0.00 | 25 | 1013.7 |
| 20260901211514 | 81 | 17 | 4.0 | 9.0 | 0.00 | 0.00 | 0.00 | 27 | 1013.8 |
| 20260901210010 | 82 | 5 | 4.0 | 9.0 | 0.00 | 0.00 | 0.00 | 33 | 1013.7 |
| 20260901204505 | 83 | 9 | 4.0 | 8.0 | 0.00 | 0.00 | 0.00 | 39 | 1013.5 |
| 20260901203001 | 85 | 20 | 1.0 | 7.0 | 0.00 | 0.00 | 0.00 | 38 | 1013.2 |
| 20260901201558 | 85 | 59 | 4.0 | 7.0 | 0.00 | 0.00 | 0.00 | 42 | 1013.1 |
| 20260901200053 | 85 | 49 | 3.0 | 7.0 | 0.00 | 0.00 | 0.00 | 39 | 1013.1 |
| 20260901194547 | 86 | 26 | 4.0 | 6.0 | 0.00 | 0.00 | 0.00 | 43 | 1013.2 |
| 20260901193043 | 86 | 343 | 4.0 | 7.0 | 0.00 | 0.00 | 0.00 | 40 | 1013.3 |
| 20260901191540 | 86 | 360 | 2.0 | 6.0 | 0.00 | 0.00 | 0.00 | 39 | 1013.4 |
| 20260901190037 | 85 | 20 | 3.0 | 8.0 | 0.00 | 0.00 | 0.00 | 38 | 1013.5 |